Regional Weather Roundup
Issued by NWS

Home | Current Version | Previous Version | Text Only | Print | Product List | Glossary Off
Versions: 1 2 3 4 5 6 7 8 9 10 11 12 13 14 15 16 17 18 19 20 21 22 23 24 25 26 27 28 29 30 31 32 33 34 35 36 37 38 39 40 41 42 43 44 45 46 47 48 49 50

000
ASUS43 KLOT 070408
RWRIL

ILLINOIS REGIONAL WEATHER ROUNDUP
NATIONAL WEATHER SERVICE CHICAGO/ROMEOVILLE IL
1000 PM CST TUE DEC 06 2016

NOTE: "FAIR" INDICATES FEW OR NO CLOUDS BELOW 12,000 FEET WITH NO
SIGNIFICANT WEATHER AND/OR OBSTRUCTIONS TO VISIBILITY.

* THESE STATIONS ARE NOT UNDER NWS QUALITY CONTROL. THEY ALSO MAY NOT
  REPORT WEATHER SUCH AS PRECIPITATION OR FOG.

ILZ001-002-007-009-015-016-024-070500-
NORTHWEST ILLINOIS

CITY           SKY/WX    TMP DP  RH WIND       PRES   REMARKS
MOLINE         CLEAR     30  17  58 W16G23    30.01R WCI  19
STERLING*      CLEAR     27  21  78 W14       29.99R WCI  16
$$

ILZ003-004-008-010-011-017-018-070500-
NORTH CENTRAL ILLINOIS

CITY           SKY/WX    TMP DP  RH WIND       PRES   REMARKS
ROCKFORD       PTCLDY    27  19  72 W12       29.97S WCI  17
FREEPORT*      CLEAR     25  18  75 W13       29.96S WCI  13
ROCHELLE*      CLEAR     22  19  88 W7        29.98S WCI  14
$$

ILZ005-006-012>014-019>023-070500-
NORTHEAST ILLINOIS

CITY           SKY/WX    TMP DP  RH WIND       PRES   REMARKS
CHICAGO-OHARE  CLOUDY    27  19  72 W16G25    29.95R WCI  15
CHICAGO-MIDWAY CLOUDY    29  19  66 W12       29.97R WCI  19
AURORA         CLOUDY    25  19  78 W10       29.97S WCI  15
LANSING*       PTCLDY    29  24  82 W10G18    29.98S WCI  19
WAUKEGAN       MOCLDY    28  19  69 W13G24    29.90S WCI  17
DUPAGE AIRPORT CLOUDY    26  19  74 W10       29.95S WCI  16
KANKAKEE*      CLEAR     30  23  77 W12       30.01S WCI  20
WHEELING       PTCLDY    28  18  66 W12G24    29.95S WCI  18
MORRIS*        PTCLDY    28  22  79 W9        29.98S WCI  19
NORTHERLY ISL    N/A     29  20  69 W10         N/A  WCI  20
$$

LMZ740>746-070500-
SOUTHERN LAKE MICHIGAN

STATION/POSITION SKY/WX   TEMP    WIND        PRES    VSBY  WAVE
                          AIR SEA DIR/SP/G                  HT/PER
                          (F)     (DEG/KT/KT) (MB)    (MI)  (FT/S)
HARRISON CRIB              31     270/ 25/ 30   N/A
BURNHAM HARBOR             30     260/  8/ 18   N/A
CALUMET HARBOR             29     250/  8/ 15 1014.2R
BURNS HARBOR               33     260/ 26/ 33 1014.6R
MICHIGAN CITY              32     230/ 34/ 38   N/A
$$

ILZ025>027-034>036-040-047-049-050-058-095>099-070500-
WEST-CENTRAL ILLINOIS

CITY           SKY/WX    TMP DP  RH WIND       PRES   REMARKS
QUINCY         PTCLDY    30  19  63 W9        30.10R WCI  22
GALESBURG*     CLEAR     28  21  75 W10       30.05R WCI  19
MACOMB*        CLOUDY    30  22  73 W15       30.08R WCI  19
JACKSONVILLE*  MOCLDY    31  22  70 W8        30.10R WCI  24
PITTSFIELD*    CLOUDY    32  20  61 W9        30.11R WCI  25
$$

ILZ028>032-037-038-041>044-048-051>054-059>061-070500-
CENTRAL ILLINOIS

CITY           SKY/WX    TMP DP  RH WIND       PRES   REMARKS
PONTIAC        PTCLDY    31  26  84 W10       30.03R WCI  22
BLOOMINGTON    PTCLDY    29  23  78 W10       30.04R WCI  20
DECATUR        CLEAR     33  23  66 W9        30.07R WCI  25
PEORIA         CLEAR     29  21  72 W10       30.06R WCI  20
LACON*         CLEAR     29  21  71 W7        30.03R WCI  22
LINCOLN*       PTCLDY    32  25  73 W6        30.07R WCI  27
SPRINGFIELD    CLOUDY    33  22  63 W8        30.09R WCI  26
TAYLORVILLE    CLEAR     32  24  70 W12       30.08R WCI  23
$$

ILZ033-039-045-046-055>057-062-063-070500-
EAST-CENTRAL ILLINOIS

CITY           SKY/WX    TMP DP  RH WIND       PRES   REMARKS
CHAMPAIGN      PTCLDY    31  25  78 W10       30.04R WCI  22
RANTOUL*       MOCLDY    33  26  75 NW13      30.03R WCI  24
MATTOON        CLEAR     31  26  82 W9        30.05R WCI  23
PARIS*         CLEAR     31  29  94 W8        30.05R WCI  23
$$

ILZ079-100>102-070500-
SOUTHWEST ILLINOIS

CITY           SKY/WX    TMP DP  RH WIND       PRES   REMARKS
ALTON          CLEAR     32  25  74 W9        30.10S WCI  24
BELLEVILLE     CLOUDY    35  25  67 NW13      30.09R WCI  26
CAHOKIA*       CLOUDY    36  22  56 NW6       30.12R WCI  31
SPARTA*        PTCLDY    33  30  87 CALM      30.12R
$$

ILZ064>066-069>071-074>076-080>082-084>086-088>090-092>094-070500-
SOUTH-CENTRAL ILLINOIS

CITY           SKY/WX    TMP DP  RH WIND       PRES   REMARKS
CARBONDALE     PTCLDY    36  34  92 W5        30.11R WCI  32
CAIRO*         PTCLDY    38  36  89 NW6       30.12R WCI  34
EFFINGHAM*     CLEAR     32  31  95 W5        30.10R WCI  27
MARION         CLOUDY    37  36  93 CALM      30.12R
CENTRALIA*     PTCLDY    33  32  95 W6        30.10R WCI  27
SALEM*         PTCLDY    34  32  92 W6        30.10R FOG     WCI  29
METROPOLIS*    MOCLDY    36  35  96 CALM      30.12R FOG
$$

ILZ067-068-072-073-078-083-087-091-070500-
SOUTHEAST ILLINOIS

CITY           SKY/WX    TMP DP  RH WIND       PRES   REMARKS
LAWRENCEVILLE  CLEAR     32  29  88 CALM      30.08R
FLORA*         PTCLDY    32  31  97 W5        30.10R WCI  28
FAIRFIELD*     CLOUDY    32  32 100 CALM      30.09R FOG
HARRISBURG*    PTCLDY    35  35  96 SW5       30.12R FOG     WCI  31
ROBINSON*      CLEAR     32  31  94 W8        30.08R WCI  25
CARMI*         CLOUDY    33  33  98 SW3       30.09S FOG
$$

ABBREVIATIONS USED IN REMARKS
   TC - TEMPERATURE IN CELSIUS
  WCI - WIND CHILL INDEX
   HX - HEAT INDEX
  VSB - VISIBILITY
$$





USA.gov is the U.S. government's official web portal to all federal, state and local government web resources and services.